Torna al catalogo

FREGAT DEB

AttivoUNKNOWN
NORAD 47332·DEBRIS·🇷🇺 Russia

Lanciato Jul 18, 2011 da Baikonur Cosmodrome

Loading…

Prossimi Passaggi (prossime 24 ore)

TLE

AggiornatoSource: Space-Track

Epoca: Sep 11, 2026, 21:35 UTC

1 47332U 11037NP  26254.89938700  .00000651  00000-0  17490-3 0  9990
2 47332  51.4163 324.1611 1882219 126.3630 252.6006 11.29966570233769

Traccia FREGAT DEB in tempo reale con AllMySat

Download on the App Store